Weather History for K8A0 - October, 2013

Change the Weather History Date:

Thursday, October 31, 2013

  Actual Average (KGAD) Record (KGAD)
Temperature  
Mean Temperature 66 °F -  
Max Temperature 71 °F 68 °F - (-1)
Min Temperature 60 °F 43 °F - (-1)
Growing Degree Days 16 (Base 50)    
Moisture  
Dew Point 42 °F    
Average Humidity 44    
Maximum Humidity 88    
Minimum Humidity 31    
Precipitation  
Precipitation 0.01 in - - ()
Sea Level Pressure  
Sea Level Pressure 29.94 in    
Wind  
Wind Speed 9 mph (South)    
Max Wind Speed 22 mph    
Max Gust Speed 33 mph    
Visibility 10 miles    
Events Rain    
Averages and records for this station are not official NWS values.
T = Trace of Precipitation, MM = Missing Value Source: NWS Daily Summary

Daily Weather History Graph

Daily Weather History Graph

Search for Another Location

Airport or City:

Trip Planner

Search our weather history database for the weather conditions in past years. The results will help you decide how hot, cold, wet, or windy it might be!

Date:

Astronomy

Oct. 31, 2013 Rise Set
Actual Time 7:04 AM CDT 5:52 PM CDT
Civil Twilight 6:38 AM CDT 6:18 PM CDT
Nautical Twilight 6:08 AM CDT 6:48 PM CDT
Astronomical Twilight 5:39 AM CDT 7:17 PM CDT
Moon 4:00 AM CDT (10/31) 4:04 PM CDT (10/31)
Length of Visible Light 11h 40m
Length of Day
10h 48m
Waning Crescent, 10% of the Moon is Illuminated
Oct 31
Waning Crescent
Nov 3
New
Nov 9
First Quarter
Nov 17
Full
Nov 25
Last Quarter

Hourly Weather History & Observations

Time (CDT) Temp. Dew Point Humidity Pressure Visibility Wind Dir Wind Speed Gust Speed Precip Events Conditions
12:15 AM 64.4 °F 33.8 °F 32% 30.12 in 10.0 mi SSE 3.5 mph - N/A   Clear
12:35 AM 62.6 °F 35.6 °F 37% 30.11 in 10.0 mi SE 5.8 mph - N/A   Clear
12:55 AM 62.6 °F 33.8 °F 34% 30.11 in 10.0 mi SSE 6.9 mph - N/A   Clear
1:15 AM 62.6 °F 35.6 °F 37% 30.10 in 10.0 mi SE 5.8 mph - N/A   Clear
1:35 AM 62.6 °F 35.6 °F 37% 30.10 in 10.0 mi SSE 6.9 mph - N/A   Clear
1:55 AM 62.6 °F 33.8 °F 34% 30.09 in 10.0 mi SE 5.8 mph - N/A   Clear
2:15 AM 62.6 °F 33.8 °F 34% 30.09 in 10.0 mi SE 4.6 mph - N/A   Clear
2:35 AM 62.6 °F 33.8 °F 34% 30.08 in 10.0 mi SSE 5.8 mph - N/A   Clear
2:55 AM 62.6 °F 33.8 °F 34% 30.07 in 10.0 mi SE 5.8 mph - N/A   Clear
3:15 AM 62.6 °F 35.6 °F 37% 30.07 in 10.0 mi SE 5.8 mph - N/A   Clear
3:35 AM 62.6 °F 33.8 °F 34% 30.07 in 10.0 mi SSE 6.9 mph - N/A   Clear
3:55 AM 62.6 °F 33.8 °F 34% 30.07 in 10.0 mi SSE 6.9 mph - N/A   Clear
4:15 AM 62.6 °F 33.8 °F 34% 30.07 in 10.0 mi SSE 6.9 mph - N/A   Clear
4:35 AM 62.6 °F 33.8 °F 34% 30.07 in 10.0 mi SSE 8.1 mph - N/A   Mostly Cloudy
4:55 AM 62.6 °F 33.8 °F 34% 30.07 in 10.0 mi SSE 5.8 mph - N/A   Overcast
5:15 AM 62.6 °F 33.8 °F 34% 30.06 in 10.0 mi SSE 5.8 mph - N/A   Scattered Clouds
5:35 AM 62.6 °F 33.8 °F 34% 30.06 in 10.0 mi SSE 5.8 mph - N/A   Clear
5:55 AM 60.8 °F 33.8 °F 36% 30.05 in 10.0 mi SE 5.8 mph - N/A   Scattered Clouds
6:15 AM 60.8 °F 33.8 °F 36% 30.04 in 10.0 mi SE 5.8 mph - N/A   Scattered Clouds
6:35 AM 60.8 °F 33.8 °F 36% 30.03 in 10.0 mi SSE 5.8 mph - N/A   Clear
6:55 AM 60.8 °F 33.8 °F 36% 30.02 in 10.0 mi SSE 5.8 mph - N/A   Scattered Clouds
7:15 AM 60.8 °F 35.6 °F 39% 30.03 in 10.0 mi SSE 6.9 mph - N/A   Scattered Clouds
7:35 AM 60.8 °F 35.6 °F 39% 30.02 in 10.0 mi SSE 9.2 mph - N/A   Clear
7:55 AM 62.6 °F 35.6 °F 37% 30.02 in 10.0 mi SSE 10.4 mph 17.3 mph N/A   Clear
8:15 AM 62.6 °F 35.6 °F 37% 30.02 in 10.0 mi SSE 10.4 mph 16.1 mph N/A   Clear
8:35 AM 62.6 °F 37.4 °F 39% 30.02 in 10.0 mi SSE 11.5 mph 17.3 mph N/A   Clear
8:55 AM 62.6 °F 37.4 °F 39% 30.02 in 10.0 mi SSE 9.2 mph - N/A   Clear
9:15 AM 62.6 °F 39.2 °F 42% 30.02 in 10.0 mi SSE 10.4 mph - N/A   Clear
9:35 AM 62.6 °F 41.0 °F 45% 30.01 in 10.0 mi SSE 11.5 mph 17.3 mph N/A   Scattered Clouds
9:55 AM 64.4 °F 42.8 °F 45% 30.01 in 10.0 mi South 13.8 mph 19.6 mph N/A   Scattered Clouds
10:15 AM 64.4 °F 42.8 °F 45% 30.01 in 10.0 mi South 11.5 mph 21.9 mph N/A   Overcast
10:35 AM 64.4 °F 42.8 °F 45% 30.01 in 10.0 mi South 12.7 mph 18.4 mph N/A   Overcast
10:55 AM 66.2 °F 44.6 °F 46% 30.01 in 10.0 mi South 15.0 mph 24.2 mph N/A   Overcast
11:15 AM 66.2 °F 44.6 °F 46% 30.01 in 10.0 mi South 16.1 mph 25.3 mph N/A   Overcast
11:35 AM 66.2 °F 44.6 °F 46% 29.99 in 10.0 mi South 15.0 mph 24.2 mph N/A   Overcast
11:55 AM 68.0 °F 44.6 °F 43% 29.98 in 10.0 mi South 13.8 mph 21.9 mph N/A   Mostly Cloudy
12:15 PM 68.0 °F 42.8 °F 40% 29.97 in 10.0 mi South 16.1 mph 23.0 mph N/A   Mostly Cloudy
12:35 PM 68.0 °F 42.8 °F 40% 29.97 in 10.0 mi South 16.1 mph 25.3 mph N/A   Overcast
12:55 PM 69.8 °F 42.8 °F 38% 29.95 in 10.0 mi South 11.5 mph 23.0 mph N/A   Overcast
1:15 PM 69.8 °F 42.8 °F 38% 29.94 in 10.0 mi South 16.1 mph 23.0 mph N/A   Overcast
1:35 PM 69.8 °F 42.8 °F 38% 29.92 in 10.0 mi South 11.5 mph 23.0 mph N/A   Overcast
1:55 PM 69.8 °F 42.8 °F 38% 29.91 in 10.0 mi South 15.0 mph 23.0 mph N/A   Overcast
2:15 PM 69.8 °F 42.8 °F 38% 29.91 in 10.0 mi South 11.5 mph 16.1 mph N/A   Overcast
2:35 PM 71.6 °F 41.0 °F 33% 29.89 in 10.0 mi South 15.0 mph 23.0 mph N/A   Overcast
2:55 PM 71.6 °F 41.0 °F 33% 29.88 in 10.0 mi South 15.0 mph 24.2 mph N/A   Overcast
3:15 PM 71.6 °F 39.2 °F 31% 29.87 in 10.0 mi South 16.1 mph 24.2 mph N/A   Overcast
3:35 PM 71.6 °F 41.0 °F 33% 29.86 in 10.0 mi South 12.7 mph 20.7 mph N/A   Overcast
3:55 PM 71.6 °F 41.0 °F 33% 29.86 in 10.0 mi South 13.8 mph 23.0 mph N/A   Overcast
4:15 PM 71.6 °F 41.0 °F 33% 29.85 in 10.0 mi South 13.8 mph 27.6 mph N/A   Overcast
4:35 PM 71.6 °F 42.8 °F 35% 29.85 in 10.0 mi South 13.8 mph 23.0 mph N/A   Overcast
4:55 PM 71.6 °F 42.8 °F 35% 29.84 in 10.0 mi South 10.4 mph 19.6 mph N/A   Mostly Cloudy
5:15 PM 71.6 °F 44.6 °F 38% 29.84 in 10.0 mi South 12.7 mph 18.4 mph N/A   Overcast
5:35 PM 69.8 °F 46.4 °F 43% 29.82 in 10.0 mi South 9.2 mph 23.0 mph N/A   Drizzle
5:55 PM 69.8 °F 46.4 °F 43% 29.83 in 10.0 mi South 12.7 mph 21.9 mph N/A Rain Light Rain
6:15 PM 69.8 °F 48.2 °F 46% 29.83 in 10.0 mi South 11.5 mph 18.4 mph N/A   Light Drizzle
6:35 PM 69.8 °F 50.0 °F 49% 29.84 in 10.0 mi South 12.7 mph 18.4 mph N/A   Light Drizzle
6:55 PM 69.8 °F 50.0 °F 49% 29.84 in 10.0 mi South 13.8 mph 24.2 mph N/A   Light Drizzle
7:15 PM 69.8 °F 51.8 °F 53% 29.83 in 10.0 mi South 13.8 mph 23.0 mph N/A   Mostly Cloudy
7:35 PM 69.8 °F 51.8 °F 53% 29.82 in 10.0 mi South 18.4 mph 28.8 mph N/A Rain Light Rain
7:55 PM 68.0 °F 62.6 °F 83% 29.80 in 10.0 mi South 13.8 mph 25.3 mph N/A Rain Light Rain
8:15 PM 68.0 °F 62.6 °F 83% 29.80 in 10.0 mi South 18.4 mph 27.6 mph N/A   Drizzle
8:35 PM 68.0 °F 64.4 °F 88% 29.78 in 10.0 mi South 17.3 mph 26.5 mph N/A Rain Light Rain
8:55 PM 68.0 °F - N/A% 29.79 in 7.0 mi South 13.8 mph 27.6 mph N/A Rain Light Rain
9:15 PM 68.0 °F - N/A% 29.79 in 10.0 mi South 13.8 mph 23.0 mph N/A Rain Rain
9:35 PM 68.0 °F - N/A% 29.78 in 10.0 mi South 16.1 mph 32.2 mph N/A Rain Light Rain
9:55 PM 68.0 °F 60.8 °F 78% 29.78 in 10.0 mi South 21.9 mph 33.4 mph 0.01 in   Overcast
10:15 PM 68.0 °F 59.0 °F 73% 29.77 in 10.0 mi South 19.6 mph 33.4 mph N/A   Overcast
10:35 PM 68.0 °F 55.4 °F 64% 29.79 in 10.0 mi SSW 15.0 mph 23.0 mph N/A   Overcast
10:55 PM 68.0 °F 57.2 °F 68% 29.78 in 10.0 mi South 12.7 mph 21.9 mph N/A Rain Light Rain
11:15 PM 68.0 °F 62.6 °F 83% 29.77 in 10.0 mi South 19.6 mph 24.2 mph N/A   Light Drizzle
11:35 PM 68.0 °F 60.8 °F 78% 29.77 in 10.0 mi South 12.7 mph 23.0 mph N/A Rain Rain
11:55 PM 66.2 °F - N/A% 29.76 in 10.0 mi South 11.5 mph 19.6 mph N/A Rain Light Rain